[[{"header":{"parameterUnit":"m.s-1","parameterCategory":1,"la1":30.2991,"la2":30.254,"lo1":-89.0895,"lo2":-89.0444,"dy":0.0017,"dx":0.0017,"nx":28,"ny":28,"refTime":"2024-03-19T03:00:00:Z","depth":0,"parameterNumber":2,"parameterNumberName":"U-component_of_WINDS"},"data":[0,0,0,0,0,0,0,0,0,0,0,0,0,0,0,0,0,0,0,0,0,0,0,0,0,0,0,0,0,0,0,0,0,0,0,0,0,0,0,0,0,0,0,0,0,0,0,0,0,0,0,0,0,0,0,0,0,0,0.0883,0.0884,0,0.0938,0.0939,0.0939,0.0975,0.0975,0.0975,0.0976,0.1032,0.1033,0.1034,0,0,0,0,0,0,0,0,0,0,0,0,0,0.0807,0.0808,0.0883,0.0884,0.0884,0.0938,0.0939,0.094,0.0975,0.0975,0.0975,0.0976,0.1031,0.1033,0.1034,0,0,0,0,0,0,0,0,0,0,0,0,0,0.0849,0.0808,0.0883,0.0908,0.0911,0.0938,0.0939,0.094,0.0975,0.0975,0.0975,0.0976,0.1031,0.1033,0.1035,0.104,0,0,0.104,0.1041,0,0,0,0,0,0,0,0,0.0846,0.0851,0.0904,0.0907,0.091,0.095,0.0933,0.0973,0.0975,0.0951,0.0976,0.0976,0.1004,0.1008,0.1018,0.1043,0.1045,0.1041,0.1042,0.1043,0.1043,0,0,0,0,0,0,0,0.0843,0.0849,0.0905,0.0905,0.0908,0.0917,0.0923,0.094,0.0975,0.0953,0.0955,0.0962,0.1006,0.1016,0.102,0.1046,0.1041,0.1042,0.1043,0.1044,0.1076,0.1076,0,0,0,0,0,0,0.0836,0.0847,0.0903,0.0906,0.0878,0.0918,0.0925,0.0937,0.0975,0.0981,0.0961,0.0963,0.1013,0.1017,0.1022,0.103,0.1043,0.1044,0.1046,0.1076,0.1076,0.1076,0,0,0,0,0,0,0.0835,0.0841,0.0901,0.0877,0.0885,0.0919,0.0932,0.0938,0.0948,0.0981,0.0987,0.0965,0.1013,0.1019,0.1035,0.1032,0.1045,0.1047,0.1077,0.1076,0.1076,0.1046,0,0,0,0,0,0,0.0832,0.084,0.0843,0.0877,0.0887,0.0913,0.0932,0.0939,0.0951,0.0954,0.0987,0.0992,0.1014,0.1032,0.1037,0.1035,0.1049,0.1077,0.1077,0.1076,0.1047,0.1044,0.1042,0,0,0,0,0,0.083,0.0833,0.0843,0.085,0.0891,0.0913,0.0918,0.0943,0.0951,0.0953,0.0975,0.0991,0.1032,0.1033,0.1039,0.1038,0.1077,0.1077,0.1076,0.1048,0.1045,0.1042,0,0,0,0,0,0,0.0797,0.0838,0.085,0.0864,0.0885,0.0919,0.0923,0.0939,0.0958,0.096,0.0989,0.0996,0.1009,0.1025,0.1026,0.1044,0.1056,0.1057,0.1033,0.103,0.1028,0.1023,0.105,0,0,0,0,0,0.0792,0.0807,0.0841,0.085,0.086,0.089,0.09,0.0917,0.094,0.0949,0.0972,0.0993,0.101,0.1021,0.1039,0.105,0.1057,0.1052,0.1049,0.1047,0.1046,0.1052,0.105,0.1073,0.1073,0.1073,0,0,0.0781,0.0805,0.0812,0.0844,0.0863,0.0877,0.0897,0.0912,0.0922,0.0952,0.0968,0.0985,0.1011,0.1023,0.103,0.1037,0.1041,0.1046,0.1044,0.1045,0.1051,0.1049,0.1047,0.1073,0.1073,0.1073,0,0,0.0768,0.0788,0.0797,0.0815,0.0842,0.0862,0.0864,0.0896,0.0908,0.0925,0.0946,0.0959,0.0989,0.1006,0.1019,0.1011,0.1026,0.1016,0.1002,0.1007,0.1005,0.1003,0.1,0.0998,0.1016,0.1016,0.1016,0,0.0751,0.0774,0.08,0.0813,0.0826,0.0853,0.0862,0.0878,0.0909,0.0917,0.0925,0.0962,0.0981,0.0998,0.0995,0.1005,0.1008,0.1012,0.1003,0.1002,0.1001,0.0997,0.0996,0.1014,0.1014,0.1014,0.1014,0,0.075,0.0766,0.077,0.08,0.0813,0.0824,0.0851,0.0862,0.0877,0.0896,0.0912,0.0936,0.0958,0.0964,0.0979,0.0982,0.0985,0.0998,0.101,0.0996,0.0994,0.0993,0.1012,0.1012,0.1013,0.1013,0,0,0.0719,0.0762,0.0763,0.0777,0.0808,0.082,0.0832,0.0854,0.0862,0.0883,0.0893,0.0917,0.0928,0.0942,0.096,0.0964,0.0955,0.0976,0.0977,0.097,0.0958,0.0948,0.0946,0.0965,0.0965,0.0965,0.0956,0,0.071,0.0733,0.0756,0.0771,0.0785,0.081,0.082,0.084,0.0857,0.0871,0.0891,0.0906,0.092,0.0929,0.0934,0.0955,0.0953,0.0956,0.0974,0.0975,0.0966,0.0945,0.0935,0.0925,0.0955,0.0955,0.0955,0,0.0703,0.0722,0.0737,0.0767,0.0774,0.0782,0.0804,0.0817,0.084,0.0852,0.0867,0.0886,0.0899,0.091,0.0928,0.0929,0.0938,0.0949,0.0949,0.0951,0.0963,0.0946,0.0922,0.092,0.0953,0.0953,0.0954,0,0.0677,0.0707,0.072,0.073,0.0765,0.077,0.0785,0.0808,0.082,0.0838,0.0846,0.0866,0.0876,0.0891,0.0914,0.0921,0.0929,0.0943,0.0939,0.0938,0.0939,0.0938,0.0915,0.0946,0.0946,0.0946,0.0946,0,0.0664,0.0673,0.0708,0.0716,0.0726,0.0753,0.0761,0.0778,0.0798,0.0809,0.0832,0.0842,0.0872,0.0885,0.0904,0.0915,0.092,0.0929,0.0934,0.0927,0.0925,0.0933,0.0934,0.0946,0.0946,0.0946,0.0946,0,0.0637,0.0662,0.0677,0.0708,0.0717,0.0722,0.0749,0.0757,0.0775,0.0789,0.0793,0.0822,0.0838,0.0863,0.0887,0.0899,0.0907,0.0915,0.0899,0.0902,0.0896,0.0896,0.0876,0.0875,0.0907,0.0906,0.0906,0,0.0627,0.0634,0.0666,0.0675,0.0689,0.0703,0.0714,0.0741,0.0752,0.0778,0.0782,0.08,0.0816,0.0841,0.0864,0.0882,0.089,0.0882,0.0893,0.0885,0.0889,0.0888,0.0888,0.0879,0.0879,0.0878,0.0878,0,0.0606,0.0618,0.0634,0.0653,0.0666,0.0683,0.0701,0.0707,0.0737,0.0748,0.0765,0.0777,0.0801,0.0819,0.084,0.0854,0.0871,0.0874,0.0874,0.0867,0.0857,0.0861,0.0891,0.0875,0.0875,0.0875,0.0875,0.0876,0.0587,0.0593,0.0616,0.0633,0.0649,0.0665,0.0674,0.0693,0.0708,0.0729,0.0744,0.076,0.0781,0.0811,0.0825,0.0837,0.0844,0.0845,0.0844,0.0844,0.0841,0.0855,0.0841,0.0842,0.0842,0.0842,0.0842,0,0.0566,0.0582,0.0597,0.0621,0.0634,0.0648,0.0669,0.0678,0.0692,0.0711,0.0726,0.0744,0.0761,0.0785,0.0803,0.0808,0.0816,0.0812,0.0812,0.0814,0.0834,0.0832,0.0805,0.0805,0.0805,0.0805,0.0805,0.0805,0.0557,0.0568,0.0582,0.0602,0.0618,0.0634,0.0644,0.0658,0.0674,0.0693,0.0707,0.0723,0.0743,0.0763,0.0779,0.0785,0.079,0.0784,0.0792,0.081,0.0813,0.0816,0.0814,0.0785,0.0785,0.0772,0.0772,0.0772]},{"header":{"parameterUnit":"m.s-1","parameterCategory":1,"la1":30.2991,"la2":30.254,"lo1":-89.0895,"lo2":-89.0444,"dy":0.0017,"dx":0.0017,"nx":28,"ny":28,"refTime":"2024-03-19T03:00:00:Z","depth":0,"parameterNumber":3,"parameterNumberName":"V-component_of_WINDS"},"data":[0,0,0,0,0,0,0,0,0,0,0,0,0,0,0,0,0,0,0,0,0,0,0,0,0,0,0,0,0,0,0,0,0,0,0,0,0,0,0,0,0,0,0,0,0,0,0,0,0,0,0,0,0,0,0,0,0,0,2.1877,2.1877,0,2.1868,2.1867,2.1867,2.1846,2.1845,2.1845,2.1844,2.1834,2.1834,2.1834,0,0,0,0,0,0,0,0,0,0,0,0,0,2.1876,2.1876,2.1877,2.1877,2.1877,2.1868,2.1867,2.1867,2.1846,2.1845,2.1845,2.1844,2.1834,2.1834,2.1835,0,0,0,0,0,0,0,0,0,0,0,0,0,2.1872,2.1876,2.1877,2.1865,2.1864,2.1868,2.1867,2.1867,2.1846,2.1845,2.1845,2.1844,2.1834,2.1834,2.1835,2.1849,0,0,2.1835,2.1835,0,0,0,0,0,0,0,0,2.1873,2.1873,2.1867,2.1866,2.1865,2.1857,2.1863,2.1861,2.1846,2.1853,2.1844,2.1844,2.1842,2.1842,2.1841,2.1849,2.1848,2.1835,2.1835,2.1835,2.1835,0,0,0,0,0,0,0,2.1873,2.1873,2.1873,2.1867,2.1865,2.186,2.1859,2.1863,2.1851,2.1852,2.1851,2.185,2.1842,2.1841,2.1841,2.1848,2.1835,2.1835,2.1835,2.1836,2.1865,2.1866,0,0,0,0,0,0,2.1875,2.1873,2.1874,2.1873,2.1867,2.186,2.1859,2.186,2.1851,2.1849,2.185,2.1849,2.1841,2.1841,2.1841,2.1856,2.1835,2.1836,2.1836,2.1865,2.1866,2.1866,0,0,0,0,0,0,2.1875,2.1875,2.1874,2.1873,2.1872,2.1861,2.1863,2.186,2.186,2.185,2.1848,2.1852,2.1841,2.184,2.1847,2.1856,2.1836,2.1836,2.1864,2.1865,2.1866,2.1888,0,0,0,0,0,0,2.1875,2.1875,2.1881,2.1873,2.1872,2.1881,2.1863,2.1861,2.1861,2.1858,2.1851,2.1849,2.184,2.1847,2.1847,2.1856,2.1836,2.1863,2.1864,2.1866,2.1887,2.189,2.1893,0,0,0,0,0,2.1875,2.1888,2.1882,2.1882,2.1879,2.1881,2.1881,2.187,2.1861,2.1867,2.186,2.1849,2.1855,2.1848,2.1848,2.1857,2.1863,2.1864,2.1865,2.1885,2.1889,2.1893,0,0,0,0,0,0,2.1898,2.1887,2.1879,2.189,2.1887,2.1878,2.1884,2.1875,2.1874,2.1872,2.1859,2.1858,2.1866,2.1862,2.1854,2.187,2.1857,2.1858,2.1872,2.1876,2.1879,2.1879,2.1836,0,0,0,0,0,2.1904,2.1907,2.1897,2.1907,2.1906,2.1895,2.1896,2.1888,2.1884,2.1883,2.1877,2.1873,2.1874,2.1874,2.1875,2.1886,2.1884,2.1892,2.1895,2.1898,2.1899,2.1904,2.1907,2.1871,2.1871,2.1871,0,0,2.1917,2.1911,2.1914,2.1912,2.1908,2.1911,2.1894,2.1898,2.19,2.1883,2.1889,2.1884,2.1879,2.1888,2.1892,2.1885,2.1909,2.19,2.1902,2.1902,2.1906,2.1909,2.1912,2.1872,2.1872,2.1872,0,0,2.1941,2.1938,2.1945,2.1942,2.1937,2.193,2.1932,2.1924,2.192,2.1925,2.1912,2.1914,2.1916,2.1913,2.1912,2.1934,2.1924,2.1935,2.195,2.1955,2.1958,2.196,2.1968,2.1971,2.1936,2.1936,2.1936,0,2.1958,2.1962,2.195,2.1955,2.1954,2.1939,2.1946,2.1943,2.1939,2.1938,2.1931,2.1932,2.1928,2.1935,2.1941,2.194,2.1942,2.1935,2.1958,2.1961,2.1963,2.197,2.1973,2.1937,2.1937,2.1937,2.1937,0,2.1982,2.1985,2.1992,2.1987,2.1987,2.1993,2.1982,2.1984,2.1976,2.1969,2.1974,2.1968,2.1967,2.1968,2.196,2.1974,2.197,2.1961,2.1948,2.1968,2.1974,2.1977,2.1939,2.1939,2.1938,2.1938,0,0,2.202,2.2009,2.2012,2.2009,2.2002,2.2004,2.2009,2.2008,2.2009,2.2006,2.2009,2.2011,2.2002,2.2,2.1992,2.1996,2.2014,2.1986,2.1986,2.1991,2.2027,2.2034,2.2037,2.2007,2.2007,2.2008,2.2028,0,2.2043,2.2051,2.2041,2.2051,2.2053,2.2038,2.2042,2.2038,2.2032,2.2033,2.2026,2.2027,2.2015,2.2014,2.2018,2.2011,2.2021,2.2009,2.2009,2.201,2.2011,2.2041,2.2048,2.2067,2.203,2.2031,2.2031,0,2.207,2.2069,2.2079,2.207,2.2071,2.2075,2.2072,2.2073,2.2068,2.2063,2.2061,2.2051,2.2055,2.2042,2.2047,2.2039,2.2039,2.2035,2.2036,2.2035,2.2021,2.204,2.2073,2.2076,2.2035,2.2034,2.2034,0,2.2097,2.2097,2.2103,2.2101,2.2092,2.2095,2.2091,2.2085,2.2084,2.2082,2.2081,2.2079,2.2078,2.2077,2.2066,2.2058,2.2072,2.2058,2.2067,2.2067,2.207,2.207,2.2103,2.2071,2.2071,2.2071,2.2071,0,2.2123,2.2129,2.2114,2.2118,2.2125,2.2113,2.212,2.2114,2.2109,2.2111,2.2098,2.21,2.2086,2.2087,2.2079,2.2083,2.2083,2.2079,2.2076,2.208,2.208,2.2079,2.2077,2.2072,2.2072,2.2071,2.2071,0,2.2153,2.2143,2.2149,2.2139,2.2137,2.2142,2.2134,2.2137,2.2129,2.2132,2.2132,2.2121,2.212,2.211,2.2108,2.2102,2.211,2.2105,2.2111,2.211,2.2119,2.2118,2.2151,2.2155,2.2121,2.2122,2.2122,0,2.217,2.2175,2.2165,2.2166,2.2163,2.2164,2.2163,2.2151,2.215,2.2144,2.2148,2.2146,2.2145,2.2145,2.2136,2.2134,2.2129,2.2141,2.2128,2.2131,2.2128,2.2128,2.2128,2.2143,2.2144,2.2144,2.2144,0,2.2201,2.2195,2.2195,2.2193,2.2192,2.219,2.2186,2.2187,2.2174,2.2174,2.2174,2.2172,2.217,2.2168,2.2164,2.216,2.215,2.2148,2.215,2.2153,2.2156,2.2154,2.2118,2.2147,2.2147,2.2147,2.2147,2.2147,2.2224,2.2228,2.2221,2.2221,2.2217,2.2214,2.2216,2.2209,2.2209,2.2205,2.2198,2.2199,2.2193,2.2186,2.2183,2.2183,2.2177,2.2179,2.218,2.2181,2.2182,2.2157,2.2182,2.2182,2.2182,2.2182,2.2182,0,2.2254,2.2249,2.2249,2.2244,2.2244,2.2235,2.223,2.223,2.2231,2.2226,2.2225,2.2224,2.2222,2.2213,2.221,2.2212,2.2207,2.2212,2.2211,2.221,2.2188,2.2187,2.2216,2.2216,2.2216,2.2215,2.2215,2.2215,2.2269,2.2274,2.2268,2.227,2.2265,2.2266,2.2264,2.2261,2.2257,2.2256,2.2255,2.2249,2.2243,2.2239,2.2237,2.2234,2.2234,2.224,2.2235,2.2215,2.2212,2.2209,2.2207,2.224,2.224,2.2257,2.2257,2.2258]}]]